Find Starlink 30819

NORAD ID: 58179 Int'l Des: 2023-167 Owner: SPXS Country: US Constellation: starlink operational
LEOCIRCULAR

Current View

Loading 3D Globe...

About Starlink 30819

Starlink 30819 (NORAD 58179) is a starlink constellation satellite (v2 mini) launched Oct 30, 2023 by SPXS of US. It operates in LEO, CIRCULAR orbit with a mass of 730.00 kg.

About Starlink 30819

Description loading...

Upcoming Passes

Passes for default location (London). Set your location on the main map for personalized predictions.

Altitude History

Loading altitude history...

Two-Line Element Set

1 58179U 23167E 26169.63811683 .00000752 00000-0 36864-4 0 9994
2 58179 43.0044 293.3195 0001189 272.8156 87.2559 15.27581241146428
Epoch: Jun 18, 2026 • Age: 16 hours

Current Status

Altitude 482.4 km
Velocity 7.63 km/s
Sub-Earth Point 9.37°N, 75.79°E
Launch Date Oct 30, 2023
Age 2.6 years
Type internet

Technical Details

Classification Payload
Mass 730.00 kg
Dry Mass 700.00 kg
Total Mass 730.00 kg
Length 0.30 m
Diameter 4.10 m
Span 29.00 m
Shape Box + pan
Manufacturer SPXS
Bus Type Starlink V2M
Phase Status In Orbit
Owner/State SPXS/US

Most Searched